Location: Karcze
(52.0945°N, 22.4786°E)
Time: 02:09:11
(UTC+00:00)

A-11 Canister half - Pass Details

Date: 09 August 2021
Orbit: 1514 x 1685 km, 47.2° (Epoch: 16 September)

Event Time Altitude Azimuth Distance (km) Brightness Sun altitude
Rises 20:02:09 0° 287° (WNW) 4,879 12.6 -14.6°
Reaches altitude 10° 20:05:55 10° 276° (W) 3,910 11.7 -14.9°
Maximum altitude 20:13:38 26° 225° (SW) 2,858 10.3 -15.6°
Enters shadow 20:20:16 13° 179° (S) 3,680 10.5 -16.2°
Drops below altitude 10° 20:21:26 10° 174° (S) 3,942 - -16.3°
Sets 20:25:17 0° 162° (SSE) 4,925 - -16.7°
